Skip Page Navigation
NASA JPL Caltech
NASA Logo - Jet Propulsion Laboratory + View the NASA Portal
+ Center for Near-Earth Object Studies
JPL Home Earth Solar System Stars & Galaxies Technology
JPL Solar System Dynamics
BODIES ORBITS EPHEMERIDES TOOLS PHYSICAL DATA DISCOVERY FAQ SITE MAP
IMPORTANT: The SSD Announcement email list is now available. Major changes are coming in the near future, including possible hostname and/or URL changes. To be notified of such changes, subscribe to this email list.

Please visit this page for more details.


JPL Small-Body Database Browser
Search: [ help ]  
487671 (2015 PP113)
Classification: Main-belt Asteroid          SPK-ID: 2487671
Ephemeris | Orbit Diagram | Orbital Elements | Mission Design | Physical Parameters | Discovery Circumstances | Close-Approach Data ]

[ show orbit diagram ]
Orbital Elements at Epoch 2458600.5 (2019-Apr-27.0) TDB
Reference: JPL 11 (heliocentric ecliptic J2000)
 Element Value Uncertainty (1-sigma)   Units 
e .1210480546533887 1.9222e-07  
a 3.194751541813293 4.7583e-07 au
q 2.808033082575879 3.2194e-07 au
i 13.55670212734114 1.08e-05 deg
node 129.9966156862421 3.0979e-05 deg
peri 187.5521149345369 5.7769e-05 deg
M 231.3973535079938 7.8727e-05 deg
tp 2459345.577527414007
(2021-May-11.07752741)
0.0006074 TDB
period 2085.710653596194
5.71
0.00046597
1.276e-06
d
yr
n .1726030403015327 3.8561e-08 deg/d
Q 3.581470001050707 5.3343e-07 au
  Orbit Determination Parameters
   # obs. used (total)      58  
   data-arc span      2744 days (7.51 yr)  
   first obs. used      2010-07-17  
   last obs. used      2018-01-20  
   planetary ephem.      DE431  
   SB-pert. ephem.      SB431-N16  
   condition code      1  
   norm. resid. RMS      .56386  
   source      ORB  
   producer      Otto Matic  
   solution date      2018-Oct-04 12:40:08  

Additional Information
 Earth MOID = 1.79415 au 
 Jupiter MOID = 1.72196 au 
 T_jup = 3.141 
[ show covariance matrix ]

Ephemeris | Orbit Diagram | Orbital Elements | Mission Design | Physical Parameters | Discovery Circumstances | Close-Approach Data ]

Physical Parameter Table
Parameter Symbol Value Units Sigma Reference Notes
absolute magnitude H 16.5   n/a MPO347388  

487671 (2015 PP113)          Discovered 2010-Jul-17 by WISE at WISE
Reference: Last Updated: 2017-03-14

[ hide close-approach data ]
Close-Approach Data   ...sorted by Date/Time (TDB)
Date/Time (TDB) Time Uncertainty
(days_HH:MM)
Body Nominal Distance (au) Minimum Distance (au) Maximum Distance (au) V-relative (km/s) V-infinity (km/s) JD (TDB) Time Uncertainty (minutes) Semi-major axis (km) Semi-minor axis (km) range-LOV angle (deg) N-sigma BP Orbit Ref. Reference Modified
1932-Apr-19 13:03 01:05 Jupiter 1.88752796488304 1.88750279571835 1.88755314092374 3.95566323830791 3.84054392638614 2426817.044089316 64.9890148367674 5904.64496793484 37.1230354536226 -77.9304322471107 1624701.54030641 T 11 CATAB v2.0e-lin.ifort 2018-Oct-04 12:40:10 2018-Dec-18 03:51
1943-Jul-24 05:52 00:53 Jupiter 1.80202874295236 1.80201938426079 1.80203810630424 3.84249851984341 3.71816060536595 2430929.744448236 52.9045526038025 4689.30478327073 38.0251889245543 -84.8643051011605 1468747.85646914 T 11 CATAB v2.0e-lin.ifort 2018-Oct-04 12:40:10 2018-Dec-18 03:51
1954-Oct-24 05:01 00:44 Jupiter 1.79381514929441 1.79381200149439 1.79381829861445 3.62495275728744 3.49226308344649 2435039.709146656 43.9616390403506 2800.17798546964 47.74564460859 85.4130382560173 1288824.00379763 T 11 CATAB v2.0e-lin.ifort 2018-Oct-04 12:40:10 2018-Dec-18 03:51
1966-Jan-02 08:47 00:37 Jupiter 1.86227262427345 1.8622635956847 1.86228165288125 3.28658321133731 3.14514924492507 2439127.865953370 37.4265675643052 556.437377428881 197.329884200178 9.50092015436749 443221.409513028 T 11 CATAB v2.0e-lin.ifort 2018-Oct-04 12:40:10 2018-Dec-18 03:51
1977-Feb-06 12:02 00:31 Jupiter 1.97425851782695 1.97425057628003 1.97426646017426 3.06229959069613 2.91883749394086 2443181.001448419 30.5664809072721 2104.99775097383 65.0979009730565 -80.0452870759878 1424576.04910625 T 11 CATAB v2.0e-lin.ifort 2018-Oct-04 12:40:10 2018-Dec-18 03:51
2110-Jul-18 18:53 01:03 Jupiter 1.93221256735475 1.93218741783469 1.93223772227203 3.85456222850965 3.739105713092 2491920.287064410 62.7978221871885 5324.65670589354 39.2887074258892 -76.1634839692827 1592031.10687367 T 11 CATAB v2.0e-lin.ifort 2018-Oct-04 12:40:10 2018-Dec-18 03:51
2121-Oct-20 05:00 01:11 Jupiter 1.82760847842415 1.82759214935136 1.82762481641796 3.88569657278541 3.76453434718784 2496031.708214511 71.4167705949397 6530.26343474338 38.2217692331508 -82.9226607321331 1532761.62166319 T 11 CATAB v2.0e-lin.ifort 2018-Oct-04 12:40:10 2018-Dec-18 03:51
2133-Jan-24 19:47 01:25 Jupiter 1.7936899659422 1.79368859490406 1.79369134233055 3.8246265276925 3.69909733833844 2500146.324051610 84.5316936174607 6684.94854965874 42.9138658477504 89.0732536217481 1475851.67786574 T 11 CATAB v2.0e-lin.ifort 2018-Oct-04 12:40:10 2018-Dec-18 03:51
2144-Apr-17 02:33 01:45 Jupiter 1.84060501842155 1.8405812168867 1.84062882343136 3.65431587721074 3.52613818716856 2504246.605908590 104.519555572364 4241.43017861867 74.2067083965193 71.7671383867695 1389668.84247351 T 11 CATAB v2.0e-lin.ifort 2018-Oct-04 12:40:10 2018-Dec-18 03:51
2155-Jun-09 13:42 02:11 Jupiter 1.95244500472587 1.95240457663845 1.95248543665421 3.42587650295155 3.29681310924209 2508317.070982579 130.813947824459 4852.77349150137 99.8542267697795 -63.509288198886 1543161.68937107 T 11 CATAB v2.0e-lin.ifort 2018-Oct-04 12:40:10 2018-Dec-18 03:51

Alternate Designations
 2015 PP113 = 2010 OG17 
Ephemeris | Orbit Diagram | Orbital Elements | Mission Design | Physical Parameters | Discovery Circumstances | Close-Approach Data ]
ABOUT SSD CREDITS/AWARDS PRIVACY/COPYRIGHT GLOSSARY LINKS
FirstGov 2019-Dec-11 14:36 UT
(server date/time)  
NASA Home Page
Site Manager:   Ryan S. Park
Webmaster  Alan B. Chamberlin